Wind_Speed
8 9 11 13 14 16 17 17 17 17 18 19 21 23 23 23 22 22 22 21 21 20 21 22 22 23 23 22 22 23 24 24 24 24 23 22 21 19 18 18 19 20 21 21 20 19 19 19 19
8 8 10 13 13 15 16 16 14 16 16 17 20 22 21 21 23 23 22 21 21 21 22 23 24 24 24 23 23 24 25 25 24 24 22 22 22 21 20 21 21 22 22 23 23 22 22 21 21
5 7 8 10 11 14 14 10 11 14 14 13 16 19 19 19 20 22 23 22 23 25 25 26 26 26 26 25 25 26 26 25 25 24 23 23 23 23 23 23 24 24 24 24 25 24 24 24 23
2 3 5 7 8 11 8 8 11 9 8 9 13 15 17 18 19 22 24 23 23 25 26 26 27 27 27 27 27 27 27 27 27 26 26 26 27 26 26 25 25 25 25 24 25 25 24 24 23
3 2 3 3 5 8 5 8 7 5 6 8 13 14 17 19 19 20 22 22 22 24 26 28 27 27 27 28 28 28 28 28 29 29 29 29 29 29 28 27 26 26 25 25 24 25 24 24 24
2 2 3 4 5 6 4 6 7 8 9 10 16 19 20 21 20 20 22 24 25 26 26 28 28 29 30 31 31 31 31 32 32 32 33 33 32 31 30 29 28 28 27 27 26 26 26 26 26
3 4 6 7 7 6 5 8 10 13 14 16 19 22 24 24 23 22 25 28 30 31 30 31 31 33 34 34 35 36 36 36 36 35 35 34 34 33 31 30 30 29 30 29 29 29 29 30 30
7 8 9 10 10 10 12 13 14 16 19 21 22 24 26 29 28 28 30 33 35 35 34 34 34 34 34 34 35 36 36 36 36 36 35 35 33 32 30 29 29 29 29 30 30 30 30 30 30
8 9 9 10 11 13 15 18 18 20 23 25 25 26 27 29 30 30 31 33 35 35 34 33 33 30 30 30 32 33 34 35 36 36 35 34 33 31 29 29 28 29 29 29 29 30 30 30 30
6 7 7 9 11 13 15 17 16 18 19 20 22 22 24 25 26 26 27 28 31 32 31 30 31 28 27 28 30 32 33 34 35 36 35 35 34 33 31 30 30 30 30 30 30 30 31 31 31
6 6 8 8 10 14 17 16 15 15 14 16 18 21 23 25 26 27 28 27 27 29 30 30 31 32 31 30 31 31 33 35 37 37 37 38 38 37 36 34 34 33 33 32 32 31 31 31 31
10 11 11 11 13 16 18 18 18 18 18 17 19 22 26 28 30 31 33 33 32 32 32 33 35 36 37 36 35 35 35 36 38 39 40 41 42 41 39 37 37 37 37 37 36 36 35 35 34
14 13 13 13 15 18 20 20 20 20 21 22 24 25 27 29 31 32 34 35 36 36 35 35 38 39 40 41 40 40 40 40 41 41 41 42 43 43 42 41 40 40 40 40 39 39 38 39 39
12 13 13 14 15 18 21 21 20 18 19 21 22 24 26 27 29 31 32 33 34 35 35 36 38 41 43 43 44 43 43 43 44 45 45 45 44 44 44 44 44 44 44 43 42 41 41 40 40
11 10 11 12 15 16 16 17 17 17 19 20 22 25 26 27 28 30 33 35 36 38 39 39 39 40 42 44 45 45 45 45 45 46 47 47 47 47 47 47 47 47 47 46 45 45 45 44 44
12 11 10 11 13 15 17 17 17 18 19 21 25 28 30 31 32 34 36 38 39 42 44 45 46 46 47 48 50 51 51 52 52 52 52 53 53 53 53 53 53 53 52 51 50 49 49 48 48
13 12 12 14 16 20 23 25 25 25 24 26 29 32 34 35 37 39 39 40 42 45 47 48 48 49 51 52 54 55 55 56 57 57 58 59 59 60 59 59 59 59 59 58 57 55 54 54 53
14 16 18 19 21 23 27 28 28 27 28 30 31 34 36 39 41 42 42 42 44 46 47 48 49 50 52 53 54 56 58 60 61 60 61 62 62 63 64 65 65 64 64 63 63 62 61 61 60
14 16 18 20 22 24 27 28 29 30 31 33 35 39 40 41 41 42 43 45 48 49 51 54 58 60 59 58 58 59 60 61 62 63 63 63 63 62 63 65 68 68 67 67 67 66 66 66 66
16 18 20 22 24 26 27 29 30 33 35 38 41 43 44 46 47 48 49 52 55 57 58 59 60 62 63 65 67 64 63 64 65 66 67 68 67 66 65 65 66 67 67 67 67 67 66 66 66
21 22 23 24 25 29 32 34 36 39 41 45 47 49 51 52 54 56 60 65 67 66 64 64 66 68 69 72 75 75 71 70 71 71 71 72 72 73 72 71 70 71 70 70 69 68 67 65 63
20 22 23 26 27 30 34 37 40 43 47 51 54 56 58 62 65 69 71 70 70 69 68 68 71 74 76 78 79 80 77 75 75 76 75 75 76 77 79 78 77 76 76 76 75 74 72 71 67
18 21 23 26 30 34 37 43 47 48 51 54 56 59 63 68 71 75 76 76 75 75 76 77 77 78 80 82 83 81 80 79 77 77 77 77 77 78 80 82 82 81 80 80 80 78 77 77 74
21 24 27 31 36 41 45 51 54 56 59 61 64 66 69 74 76 77 78 81 82 83 83 81 81 81 82 83 82 79 75 71 69 69 70 71 72 74 77 80 82 82 83 81 81 81 80 80 77
24 27 31 36 42 47 51 56 60 64 67 69 72 72 72 74 75 77 80 83 84 84 83 83 82 79 77 73 68 63 57 52 51 53 55 58 62 65 71 75 77 77 76 73 75 78 78 79 78
26 30 36 41 47 51 56 61 64 67 71 74 74 74 73 74 75 78 82 83 82 81 80 78 73 68 63 55 47 42 41 42 46 50 53 57 61 65 67 68 68 69 66 58 59 63 70 75 77
30 36 41 48 54 59 63 65 68 72 75 76 74 71 71 73 75 77 78 79 78 77 75 71 62 52 42 36 35 36 38 42 46 46 46 50 53 57 61 67 68 63 60 64 59 54 56 62 70
34 42 48 54 59 63 66 69 72 75 73 72 70 70 72 74 73 70 67 64 60 57 52 45 42 35 33 33 33 33 37 40 38 39 42 46 48 47 46 49 65 68 62 57 57 54 51 52 57
39 47 53 57 60 65 69 71 75 74 73 72 70 68 65 61 60 58 54 52 50 45 39 35 33 33 33 32 31 32 34 35 35 38 42 43 40 39 39 39 46 63 66 56 48 46 40 39 47
44 50 56 59 62 66 70 72 76 74 70 68 64 61 59 60 57 52 52 50 44 37 32 30 30 30 30 28 29 30 32 33 34 36 40 38 36 32 29 30 32 41 56 60 56 56 54 48 48
Wind_Direction
252 240 233 232 232 236 236 234 232 238 242 242 240 237 234 237 241 245 246 246 249 254 259 264 268 271 275 278 281 284 285 285 285 283 277 267 261 261 265 267 265 264 264 262 262 263 264 265 265
256 249 243 239 237 241 237 234 230 233 232 232 234 233 230 235 241 247 251 256 258 259 261 264 267 271 274 276 278 280 281 282 281 277 270 262 260 261 263 266 265 264 263 262 260 260 262 264 265
251 249 246 244 240 245 247 248 246 238 231 226 233 237 235 239 247 253 256 261 262 262 263 266 268 271 273 275 277 278 279 278 275 269 263 260 261 264 267 268 266 263 261 259 259 258 258 260 260
283 281 255 245 252 253 258 247 239 240 243 241 245 250 251 248 250 253 258 264 268 269 268 269 271 274 277 278 277 276 275 274 271 266 264 264 265 267 267 267 265 263 261 259 257 256 256 256 256
305 304 305 296 292 297 285 258 258 258 267 268 264 260 259 258 258 260 261 266 269 270 272 273 274 275 277 277 276 274 273 271 268 266 264 265 266 267 267 267 265 262 259 256 254 254 253 253 252
315 304 295 286 295 314 315 282 287 287 274 261 264 266 264 265 270 273 273 270 268 267 267 271 275 277 277 277 278 277 274 271 268 267 267 267 267 267 266 264 262 260 257 254 251 251 251 252 251
288 296 292 293 299 305 295 275 274 275 276 272 273 276 280 281 280 279 277 278 277 277 279 279 279 280 280 278 276 274 272 270 269 268 268 268 268 266 264 262 260 258 256 253 251 250 251 252 254
286 286 284 286 287 280 269 269 273 277 276 275 276 280 284 287 290 289 286 285 284 285 285 284 283 283 282 279 275 271 268 267 266 265 264 263 261 260 260 258 257 255 254 253 253 253 253 253 255
289 284 286 284 280 277 276 275 273 274 280 289 295 296 295 293 294 293 291 288 286 285 284 283 281 280 278 278 276 271 266 263 262 262 260 257 254 253 253 253 252 251 252 253 254 254 254 253 254
306 299 290 286 283 279 274 275 284 291 300 302 301 299 295 293 290 287 283 281 281 282 282 281 281 279 274 272 272 272 270 267 265 263 259 255 253 252 250 249 250 252 253 253 253 253 253 253 254
339 325 319 312 300 294 292 298 301 302 304 304 302 300 298 295 294 292 289 284 280 279 278 277 276 276 273 268 266 266 267 267 266 264 261 257 254 252 250 249 250 251 251 251 252 251 252 251 251
338 335 329 321 309 303 301 305 306 306 303 296 292 290 288 288 288 288 287 285 282 278 275 274 272 271 270 269 267 265 263 262 263 263 263 262 260 257 254 250 249 249 250 250 250 249 250 251 251
333 337 333 325 317 310 310 315 317 313 304 297 294 292 289 287 286 285 285 285 284 282 279 276 274 272 272 271 269 267 264 260 259 258 258 260 262 261 260 258 254 252 252 253 253 253 253 253 253
337 341 336 326 318 318 323 330 333 327 314 307 305 302 299 297 296 295 294 292 290 286 282 280 278 278 278 276 274 271 268 266 263 261 259 258 258 259 260 259 258 257 255 255 255 256 256 256 256
351 352 345 337 336 339 339 341 344 338 326 317 309 304 300 297 293 291 290 289 287 286 284 282 281 280 279 279 277 275 274 272 269 265 262 261 260 259 258 258 258 257 256 255 254 253 253 254 255
21 22 17 3 353 348 346 346 346 335 320 308 304 304 303 298 294 290 287 284 283 281 280 280 279 277 276 274 274 274 273 273 272 270 268 266 263 262 260 258 257 256 255 254 254 254 254 254 254
21 14 7 2 355 346 341 340 339 334 326 317 315 313 308 304 301 298 294 290 287 285 282 280 278 277 276 274 273 273 273 271 270 269 268 267 266 264 262 260 257 255 254 253 253 253 254 255 255
13 4 358 355 348 340 337 337 336 332 327 322 317 314 312 309 306 302 298 294 293 290 286 283 281 281 281 278 276 275 274 271 269 269 269 267 266 264 263 261 259 257 255 254 253 252 253 253 253
4 355 349 346 340 337 337 337 333 328 324 319 316 315 312 309 302 298 295 291 291 288 284 281 280 281 279 275 275 275 273 270 269 269 269 268 266 265 265 264 262 261 259 257 255 254 254 254 254
350 347 345 340 338 334 333 332 328 326 321 319 317 315 313 310 305 300 297 294 292 288 285 282 280 279 276 274 274 273 271 268 265 265 268 269 269 267 264 263 263 262 260 259 257 255 255 254 254
343 344 342 341 339 334 330 331 327 324 320 319 317 314 311 309 306 302 299 297 295 292 289 285 282 279 276 275 275 274 273 270 268 267 266 265 265 266 265 264 263 262 261 259 257 255 254 253 253
339 340 341 342 339 334 330 326 321 319 317 317 316 313 308 304 303 302 301 299 296 294 292 288 286 284 283 282 282 282 281 277 273 271 270 269 267 266 265 263 262 262 261 260 258 256 255 253 252
340 340 339 336 331 329 326 321 316 314 314 312 309 305 302 300 299 298 299 299 297 294 290 288 286 284 284 283 283 283 283 281 279 277 275 273 270 267 265 264 262 261 260 259 258 256 254 253 252
340 336 332 328 329 329 325 319 316 314 311 310 308 305 302 301 300 300 299 297 294 290 287 286 286 286 286 287 289 288 286 283 281 278 276 273 269 265 263 261 260 260 259 258 256 254 253 252 251
332 330 327 328 328 327 324 319 317 314 311 309 307 306 304 303 302 300 297 291 289 289 290 290 291 293 293 293 292 290 288 284 281 278 275 273 269 264 259 256 254 253 255 257 254 252 251 250 249
328 327 328 327 327 325 323 320 317 313 311 309 308 307 306 304 301 296 292 293 295 295 293 293 294 295 295 294 292 290 286 285 287 286 282 277 271 266 261 258 253 248 244 238 248 251 248 247 248
330 329 328 327 325 324 323 320 316 314 313 312 310 307 303 299 297 298 301 302 301 298 296 294 294 295 295 294 294 293 292 294 298 299 298 297 292 281 267 255 249 247 242 237 234 242 247 247 248
330 329 330 329 326 323 322 319 317 316 314 310 307 304 303 304 307 310 310 310 309 306 301 296 296 297 299 300 298 297 298 301 304 306 305 307 302 294 283 265 248 240 239 239 238 247 251 250 246
328 331 333 329 326 323 321 319 319 317 314 311 311 312 312 314 318 320 321 321 319 315 307 301 302 303 301 299 299 301 306 304 301 307 310 310 309 301 291 274 255 237 231 228 227 230 241 245 242
329 332 331 328 326 323 321 321 323 320 317 315 317 318 320 324 327 327 328 328 326 322 315 308 306 306 304 302 303 305 309 308 302 311 315 318 317 307 305 287 262 237 227 225 227 232 228 234 240
Height
5848 5848 5848 5850 5851 5851 5851 5852 5853 5853 5854 5855 5856 5858 5860 5860 5862 5863 5862 5861 5862 5862 5861 5861 5860 5860 5859 5858 5858 5857 5857 5856 5854 5853 5853 5854 5854 5853 5853 5852 5852 5853 5853 5853 5853 5854 5854 5855 5856
5846 5846 5848 5848 5848 5849 5850 5849 5850 5849 5850 5851 5852 5854 5856 5856 5856 5857 5857 5857 5857 5857 5856 5856 5855 5855 5854 5853 5853 5852 5852 5851 5850 5849 5849 5850 5849 5849 5849 5848 5848 5848 5848 5849 5849 5849 5850 5850 5851
5844 5845 5847 5847 5848 5848 5849 5850 5849 5848 5848 5849 5850 5851 5853 5854 5854 5854 5855 5854 5852 5851 5851 5851 5850 5850 5849 5848 5847 5847 5847 5846 5846 5845 5845 5845 5844 5844 5844 5843 5843 5843 5843 5843 5844 5844 5845 5846 5846
5844 5845 5846 5847 5848 5848 5849 5848 5847 5848 5849 5849 5850 5850 5850 5851 5851 5851 5851 5850 5849 5847 5847 5847 5846 5846 5844 5843 5842 5842 5841 5840 5840 5840 5840 5839 5838 5838 5838 5838 5837 5837 5837 5838 5838 5839 5840 5840 5842
5845 5845 5846 5846 5847 5848 5848 5847 5847 5848 5848 5848 5847 5847 5847 5846 5847 5848 5848 5846 5846 5844 5843 5841 5841 5840 5839 5837 5836 5835 5835 5834 5833 5834 5834 5833 5832 5832 5831 5831 5831 5831 5831 5832 5833 5834 5835 5835 5836
5845 5845 5845 5845 5846 5847 5847 5847 5846 5846 5846 5846 5844 5843 5841 5842 5843 5843 5843 5841 5840 5839 5838 5837 5835 5834 5833 5831 5830 5829 5828 5828 5827 5827 5826 5826 5826 5825 5825 5825 5825 5825 5825 5826 5827 5828 5829 5829 5830
5846 5845 5845 5845 5846 5847 5847 5845 5844 5843 5843 5843 5842 5840 5839 5839 5839 5838 5836 5834 5833 5832 5832 5831 5830 5828 5827 5825 5824 5822 5821 5820 5820 5819 5819 5818 5818 5818 5818 5818 5818 5818 5819 5819 5820 5822 5823 5824 5824
5844 5845 5844 5844 5845 5845 5844 5843 5842 5841 5839 5839 5838 5837 5836 5836 5836 5835 5832 5830 5827 5826 5824 5822 5822 5820 5819 5817 5816 5814 5813 5812 5811 5811 5810 5810 5810 5810 5810 5810 5810 5811 5812 5812 5814 5815 5816 5817 5818
5843 5845 5843 5843 5842 5842 5840 5839 5839 5838 5836 5836 5836 5835 5833 5831 5829 5827 5825 5823 5820 5818 5816 5814 5813 5813 5811 5809 5808 5806 5805 5804 5803 5803 5802 5801 5802 5802 5802 5802 5802 5803 5804 5805 5806 5807 5808 5810 5810
5843 5843 5842 5841 5840 5838 5837 5837 5838 5836 5836 5834 5831 5829 5827 5825 5823 5821 5819 5816 5813 5810 5809 5807 5805 5805 5805 5803 5801 5799 5798 5797 5796 5795 5795 5795 5795 5794 5795 5795 5795 5796 5797 5797 5798 5800 5801 5802 5803
5842 5842 5841 5840 5838 5836 5835 5836 5836 5835 5834 5831 5827 5824 5821 5819 5816 5814 5812 5809 5808 5806 5804 5802 5800 5798 5797 5796 5795 5793 5791 5790 5789 5788 5787 5787 5786 5786 5786 5788 5788 5788 5788 5789 5791 5792 5793 5794 5796
5841 5841 5840 5838 5836 5835 5834 5835 5834 5833 5831 5829 5826 5823 5819 5815 5811 5808 5804 5802 5801 5799 5797 5796 5793 5791 5789 5788 5787 5785 5783 5781 5780 5779 5779 5778 5778 5778 5778 5779 5779 5779 5779 5781 5782 5783 5784 5786 5787
5842 5841 5839 5837 5835 5833 5832 5832 5832 5829 5826 5824 5821 5817 5814 5810 5807 5803 5799 5796 5793 5791 5789 5788 5785 5783 5780 5778 5777 5775 5774 5773 5771 5770 5769 5768 5768 5768 5769 5770 5770 5771 5771 5771 5772 5774 5775 5777 5778
5841 5839 5837 5834 5832 5830 5829 5828 5827 5823 5820 5817 5813 5810 5807 5804 5800 5796 5792 5788 5785 5782 5780 5779 5776 5773 5771 5769 5767 5765 5764 5763 5761 5760 5758 5758 5757 5757 5758 5759 5759 5760 5760 5761 5763 5764 5765 5767 5768
5838 5837 5835 5833 5831 5830 5829 5827 5823 5820 5817 5813 5809 5805 5802 5798 5794 5790 5785 5781 5777 5773 5770 5768 5766 5763 5760 5758 5756 5754 5752 5750 5749 5748 5747 5746 5746 5745 5745 5745 5746 5747 5748 5750 5751 5753 5754 5756 5758
5837 5836 5834 5832 5831 5828 5826 5823 5821 5818 5814 5809 5805 5801 5797 5792 5788 5783 5779 5774 5770 5765 5761 5757 5754 5751 5748 5746 5743 5741 5739 5737 5735 5734 5733 5732 5732 5732 5732 5732 5732 5733 5735 5737 5738 5740 5742 5744 5746
5836 5835 5833 5831 5829 5826 5823 5820 5818 5815 5810 5806 5801 5796 5790 5785 5780 5776 5771 5767 5762 5757 5752 5747 5743 5739 5735 5732 5729 5726 5724 5722 5720 5718 5717 5716 5715 5715 5715 5716 5717 5717 5719 5722 5724 5726 5728 5730 5733
5836 5834 5832 5830 5827 5824 5820 5816 5812 5807 5803 5798 5792 5787 5781 5776 5771 5765 5761 5756 5751 5746 5741 5736 5732 5727 5722 5718 5715 5712 5709 5706 5704 5702 5701 5699 5698 5697 5697 5699 5700 5701 5703 5705 5708 5710 5712 5715 5717
5834 5832 5829 5827 5823 5819 5815 5811 5805 5800 5794 5788 5783 5778 5773 5767 5761 5755 5749 5743 5737 5731 5726 5720 5715 5711 5706 5702 5699 5696 5693 5690 5687 5685 5683 5682 5680 5679 5679 5680 5682 5683 5685 5687 5689 5693 5695 5698 5700
5832 5829 5826 5823 5819 5814 5808 5804 5799 5794 5788 5783 5777 5771 5764 5759 5753 5745 5737 5730 5722 5715 5709 5702 5696 5691 5686 5683 5679 5676 5674 5671 5669 5668 5666 5663 5661 5661 5662 5663 5663 5664 5666 5667 5670 5673 5676 5679 5682
5829 5827 5824 5820 5816 5811 5806 5801 5795 5788 5782 5774 5766 5759 5751 5744 5735 5727 5718 5710 5701 5694 5687 5682 5676 5671 5666 5661 5657 5654 5652 5648 5646 5645 5645 5643 5641 5641 5642 5643 5644 5645 5647 5649 5650 5654 5656 5660 5664
5828 5825 5820 5815 5811 5806 5801 5795 5788 5780 5773 5765 5756 5745 5735 5725 5714 5703 5693 5685 5677 5670 5664 5657 5652 5646 5640 5636 5632 5628 5624 5622 5621 5621 5622 5621 5618 5617 5618 5620 5621 5623 5625 5628 5630 5633 5636 5639 5645
5824 5820 5816 5811 5807 5802 5796 5788 5780 5772 5764 5755 5744 5733 5722 5709 5698 5686 5675 5665 5655 5647 5640 5632 5626 5620 5613 5608 5604 5601 5598 5593 5592 5592 5593 5593 5592 5591 5592 5594 5596 5599 5602 5604 5607 5611 5614 5617 5623
5821 5818 5814 5809 5803 5797 5789 5780 5771 5763 5752 5740 5728 5716 5704 5691 5679 5667 5656 5645 5634 5623 5614 5608 5603 5597 5590 5584 5579 5575 5572 5568 5566 5564 5564 5564 5564 5564 5563 5567 5571 5573 5576 5580 5583 5587 5590 5593 5600
5819 5816 5811 5804 5797 5790 5781 5770 5760 5747 5734 5722 5710 5697 5684 5673 5661 5649 5636 5622 5610 5601 5593 5585 5580 5575 5569 5563 5558 5554 5551 5547 5545 5541 5539 5538 5537 5536 5535 5536 5543 5548 5552 5554 5558 5563 5566 5569 5576
5813 5809 5804 5797 5789 5782 5772 5758 5746 5732 5719 5705 5693 5679 5668 5655 5640 5625 5610 5599 5591 5582 5575 5569 5565 5559 5552 5546 5541 5538 5535 5532 5528 5523 5519 5516 5513 5512 5511 5509 5514 5521 5528 5535 5536 5540 5543 5546 5553
5807 5801 5795 5788 5778 5767 5758 5746 5731 5717 5703 5691 5678 5665 5651 5635 5620 5606 5594 5582 5570 5561 5554 5550 5548 5543 5538 5533 5529 5526 5523 5519 5513 5506 5500 5495 5489 5485 5483 5484 5489 5498 5506 5514 5518 5521 5523 5527 5533
5802 5794 5787 5776 5763 5752 5742 5729 5715 5701 5689 5676 5664 5650 5635 5620 5606 5593 5579 5568 5556 5544 5536 5531 5530 5527 5524 5521 5517 5515 5511 5506 5500 5494 5488 5481 5473 5466 5461 5458 5463 5475 5485 5494 5502 5507 5509 5513 5519
5794 5786 5777 5766 5753 5738 5725 5715 5701 5686 5671 5657 5644 5631 5618 5606 5594 5580 5567 5555 5544 5534 5527 5523 5521 5518 5515 5511 5508 5505 5500 5494 5489 5483 5476 5468 5459 5450 5444 5440 5440 5450 5464 5477 5487 5491 5498 5499 5503
5787 5779 5769 5757 5745 5731 5715 5703 5683 5667 5652 5639 5628 5617 5605 5594 5582 5569 5557 5546 5536 5529 5523 5518 5514 5511 5507 5503 5499 5495 5490 5484 5479 5473 5465 5457 5448 5440 5434 5428 5426 5432 5445 5458 5469 5475 5482 5482 5488